Back to catalog

DIAMANT B-P4 DEB

AliveLEO
NORAD 7659·DEBRIS·🇫🇷 France

Launched Feb 6, 1975 from Guiana Space Centre

Loading…

Next Passes (next 24 hours)

TLE

FreshSource: Space-Track

Epoch: Sep 14, 2026, 13:14 UTC

1 07659U 75010E   26257.55168843  .00000008  00000-0  99767-4 0  9992
2 07659  49.8147  87.6153 0184683 275.3915  82.5939 13.94130783617812

Track DIAMANT B-P4 DEB in real time with AllMySat

Download on the App Store